Wind_Speed
60 58 56 53 52 51 51 51 51 51 50 48 46 44 40 36 35 35 36 38 41 43 41 39 38 38 41 47 60 77 89 94 93 88 85 82 79 76 71 66 67 68 67
59 56 54 54 54 54 55 55 54 53 52 50 48 44 40 35 32 32 32 34 38 40 39 38 36 36 37 40 48 62 77 88 91 90 87 84 82 80 77 71 68 67 65
57 55 55 56 57 58 58 58 57 56 54 53 50 45 38 33 30 29 28 29 34 37 37 37 35 35 35 36 42 51 64 76 85 87 86 85 83 82 79 76 72 69 67
56 55 56 58 59 60 60 60 59 59 58 55 50 42 35 29 27 26 25 25 30 34 36 36 35 34 34 35 38 44 53 64 74 80 82 82 82 82 80 76 74 71 68
55 56 58 60 61 62 62 63 63 63 61 55 45 35 28 24 23 23 22 23 28 33 35 36 36 35 35 35 36 39 46 54 62 69 74 76 78 80 79 76 73 70 67
55 57 60 62 63 63 64 65 66 65 59 48 36 25 19 18 19 19 19 21 26 32 34 35 35 35 35 36 36 37 40 46 53 60 65 69 72 75 76 75 72 70 68
56 58 61 63 64 65 66 68 70 66 55 40 25 14 11 13 15 15 16 18 24 31 34 35 35 36 36 36 36 37 38 40 46 51 57 63 67 70 71 71 71 69 67
56 59 62 64 65 66 68 71 72 65 50 33 19 7 6 10 12 12 14 16 22 29 34 35 35 35 36 37 37 37 38 39 41 45 49 53 58 63 66 68 68 67 65
56 59 62 65 67 68 70 72 72 62 47 31 16 5 4 8 10 11 12 15 21 28 34 36 36 36 36 37 38 38 39 39 40 41 43 47 51 55 59 62 64 64 64
57 59 63 66 68 69 71 74 73 63 48 32 17 6 2 7 9 11 11 15 20 27 34 37 38 37 37 37 37 38 39 39 39 38 38 40 43 48 53 57 59 59 59
58 60 63 66 68 69 71 74 74 65 51 36 21 9 2 4 7 9 9 13 19 26 33 38 40 39 38 38 37 37 37 38 38 37 37 36 37 42 48 52 54 57 58
58 60 62 65 67 69 70 72 73 69 57 41 27 15 6 3 5 7 7 10 16 23 32 38 42 42 41 40 38 37 36 36 36 36 36 35 35 37 43 49 52 55 57
58 59 60 63 66 68 69 70 72 72 64 51 36 22 12 6 5 6 6 7 12 20 29 38 42 44 44 43 41 39 38 37 36 37 37 36 36 38 42 47 52 54 56
58 58 58 61 64 67 69 69 71 72 70 62 48 33 20 12 7 5 5 5 8 14 24 34 41 45 46 45 44 42 40 39 38 39 39 39 40 42 46 48 51 53 54
56 56 56 58 62 65 68 70 70 71 71 69 61 48 33 20 12 8 5 4 5 10 18 28 37 43 46 47 46 45 43 41 41 41 41 42 43 46 48 49 52 52 51
54 55 55 56 59 62 65 68 69 69 69 68 67 61 50 36 23 14 8 5 4 6 13 21 31 40 45 47 48 47 45 44 43 43 43 43 44 46 48 49 49 50 50
53 54 54 55 56 58 61 63 66 68 68 67 67 65 61 53 41 28 17 9 5 5 8 15 24 34 42 46 48 49 48 47 46 45 45 45 44 45 46 47 46 47 48
51 52 53 54 54 55 57 59 62 64 66 67 66 65 64 61 55 47 34 21 11 6 5 9 17 27 36 43 46 48 49 49 48 47 46 46 46 45 45 45 46 46 47
48 50 51 52 52 52 53 55 57 60 63 65 65 65 64 62 60 57 51 40 27 15 7 5 10 18 29 38 44 46 48 49 50 50 49 48 48 48 47 47 47 47 47
46 47 49 50 50 50 50 51 53 55 58 60 62 63 63 63 61 58 56 53 46 35 21 9 4 9 18 29 38 44 47 48 49 51 51 51 50 50 50 49 49 49 49
44 45 46 47 48 48 48 49 50 52 54 56 59 61 62 63 62 60 57 55 53 50 42 29 15 4 7 16 28 38 44 47 48 50 52 52 52 52 52 51 52 51 51
43 43 43 44 45 46 46 47 48 50 51 53 55 56 58 60 61 60 59 56 53 51 49 45 37 24 9 4 13 25 36 44 48 50 50 52 53 54 54 53 53 53 53
42 42 42 42 43 43 44 45 46 48 49 51 52 53 54 55 56 58 58 58 55 52 49 47 44 40 31 18 5 8 20 33 43 49 52 52 53 54 55 56 55 55 55
41 41 41 40 41 41 41 42 44 46 47 49 50 50 51 51 52 53 54 55 55 54 50 47 44 41 39 35 26 13 3 14 28 40 49 53 55 55 55 55 56 56 56
39 40 40 40 39 39 40 40 42 44 45 47 48 49 49 49 49 49 50 51 52 52 51 48 45 42 39 36 33 29 21 9 7 21 35 46 53 57 58 57 57 56 55
37 38 39 39 39 39 39 40 41 42 44 45 46 47 47 47 47 47 47 47 48 49 50 48 46 43 40 37 33 30 27 23 16 6 13 28 42 51 57 59 59 59 57
Wind_Direction
340 341 341 340 338 335 332 328 325 322 319 317 317 313 306 296 282 266 252 244 240 239 239 240 241 242 239 232 225 222 219 216 214 215 218 218 218 218 218 220 222 225 226
343 344 343 341 339 336 333 330 327 323 320 317 314 312 306 297 284 268 252 241 237 235 235 235 236 237 236 230 224 221 220 217 215 214 217 219 219 219 219 220 222 224 226
345 346 344 342 339 337 334 332 329 325 321 317 313 309 303 294 283 269 253 239 233 230 229 229 231 232 231 228 223 220 219 218 216 214 216 219 220 220 220 220 222 224 226
348 347 345 343 341 338 336 333 330 326 322 317 311 305 297 288 277 267 253 237 227 223 222 223 224 226 227 225 223 219 217 217 217 216 216 218 220 221 222 222 222 224 226
350 349 347 345 342 340 338 336 333 329 325 320 312 303 290 278 269 261 251 234 222 216 215 216 218 220 221 222 221 217 214 214 215 216 216 218 220 222 223 223 224 225 226
351 351 349 348 346 343 341 340 338 335 331 326 317 303 282 266 258 253 247 230 218 211 209 210 212 215 217 218 217 214 212 212 213 215 215 217 219 221 222 224 225 226 227
353 353 353 351 350 348 346 345 344 342 340 336 329 309 270 250 246 244 241 227 215 207 204 205 207 210 212 213 212 209 208 208 209 211 214 215 217 219 222 224 225 226 228
354 355 356 355 354 353 352 352 350 349 348 347 343 324 246 234 234 234 232 222 213 205 200 200 203 206 209 210 208 207 206 206 207 209 211 213 215 218 221 223 225 225 226
356 357 358 358 358 358 358 357 356 357 357 357 358 351 223 224 229 232 224 215 210 203 198 198 200 203 206 208 207 206 206 206 206 207 209 209 209 211 215 219 221 221 223
358 360 1 1 2 2 2 3 3 3 4 5 7 12 217 224 233 235 221 212 208 202 198 197 197 200 203 205 206 207 208 208 209 208 207 206 206 206 208 211 214 214 217
1 2 3 4 6 6 7 8 9 9 9 10 12 16 352 245 250 251 234 217 210 205 200 198 197 197 200 202 205 207 208 209 209 209 209 208 208 207 206 205 206 206 211
3 4 5 7 9 10 11 12 14 15 15 16 18 20 16 315 280 272 253 226 214 209 204 201 199 198 198 200 203 205 206 206 206 206 207 208 209 207 204 202 202 202 207
5 6 7 9 11 13 14 16 18 20 21 21 22 23 22 9 331 304 279 245 222 215 210 206 203 201 199 199 201 202 203 203 203 203 203 203 202 201 199 199 199 201 206
7 7 8 11 13 15 17 19 21 23 25 25 25 25 24 21 9 347 316 272 235 221 216 212 208 205 203 201 201 201 201 201 202 202 202 202 200 197 196 197 199 201 204
8 7 9 12 15 17 18 21 23 24 26 27 28 28 27 24 20 9 345 307 257 230 221 216 213 210 208 205 204 202 202 202 202 202 203 204 203 201 199 197 197 197 198
9 9 11 14 16 18 21 23 25 26 27 28 29 30 30 28 25 18 5 339 294 244 226 220 216 214 212 210 208 206 204 203 204 204 205 205 206 207 206 204 201 200 198
10 10 12 15 17 19 22 24 26 28 29 30 30 31 32 31 30 27 19 3 333 278 239 224 219 217 215 214 213 211 208 207 206 207 207 208 209 210 211 211 211 209 207
10 11 13 15 17 19 21 24 26 28 30 31 31 32 33 33 33 32 30 23 8 332 275 237 223 218 217 216 216 215 213 211 211 210 210 211 212 212 213 213 214 214 214
10 11 13 14 16 19 21 23 26 28 30 31 32 33 33 33 34 34 34 33 29 20 348 277 235 221 218 218 217 217 216 216 214 214 213 214 215 215 215 214 214 214 215
9 10 12 14 16 18 20 23 25 26 29 30 32 33 33 33 34 34 34 34 35 33 29 12 291 236 221 218 218 218 218 218 218 217 217 216 217 218 217 217 217 217 217
9 10 11 13 15 18 20 23 25 26 27 29 30 31 32 33 33 33 33 34 35 35 36 34 28 344 241 223 220 219 219 220 220 220 220 219 219 220 220 220 221 220 220
10 10 12 14 16 18 20 23 25 26 27 28 29 30 31 32 33 33 33 33 33 34 35 36 37 35 24 268 229 223 221 221 221 222 222 222 223 223 222 223 223 224 224
11 11 12 14 16 18 19 22 24 25 26 27 27 28 28 29 30 31 32 33 33 32 33 34 35 36 37 33 9 241 227 224 223 223 223 224 224 224 225 225 226 226 227
11 13 14 14 16 17 17 19 21 23 24 25 25 26 26 26 27 28 28 30 31 31 31 31 32 33 34 36 35 28 304 236 228 226 225 225 225 225 225 226 227 228 229
10 12 14 15 15 15 15 15 17 20 21 22 23 23 24 24 24 25 26 26 27 28 29 29 29 29 30 31 33 34 32 15 263 235 229 227 226 226 226 226 226 227 228
7 10 12 14 14 14 13 13 14 17 19 20 21 21 22 22 22 22 23 24 24 24 25 26 26 26 26 26 27 28 29 28 24 344 248 234 230 228 227 226 226 227 228
Height
5508 5495 5483 5471 5460 5449 5439 5428 5418 5408 5399 5390 5382 5375 5369 5364 5361 5362 5365 5369 5374 5380 5386 5393 5398 5402 5407 5412 5420 5434 5451 5471 5493 5512 5524 5539 5553 5567 5581 5592 5603 5615 5626
5501 5489 5477 5465 5453 5442 5430 5418 5407 5396 5386 5376 5368 5361 5355 5351 5348 5348 5351 5356 5361 5367 5374 5380 5387 5392 5397 5402 5409 5420 5434 5452 5474 5493 5508 5522 5536 5551 5565 5578 5590 5601 5612
5495 5483 5471 5458 5446 5433 5420 5407 5395 5383 5372 5361 5353 5346 5341 5338 5336 5336 5339 5344 5349 5355 5362 5370 5377 5383 5389 5395 5401 5409 5422 5438 5457 5476 5493 5507 5522 5535 5550 5564 5576 5587 5598
5491 5478 5465 5452 5438 5424 5409 5396 5382 5368 5355 5344 5334 5329 5326 5324 5324 5325 5327 5332 5338 5344 5352 5360 5368 5375 5381 5387 5393 5401 5413 5427 5442 5461 5478 5493 5507 5520 5534 5550 5563 5574 5585
5486 5474 5460 5445 5430 5415 5399 5384 5368 5352 5336 5323 5314 5311 5310 5311 5312 5314 5317 5322 5328 5334 5342 5351 5359 5367 5373 5379 5386 5395 5405 5417 5431 5447 5463 5477 5491 5505 5521 5536 5548 5560 5570
5483 5470 5455 5440 5424 5408 5391 5373 5355 5336 5319 5305 5297 5295 5297 5300 5302 5306 5308 5314 5319 5326 5334 5343 5352 5360 5367 5373 5381 5389 5398 5409 5422 5435 5449 5463 5476 5491 5505 5519 5533 5545 5557
5480 5466 5452 5436 5419 5401 5383 5364 5343 5322 5304 5292 5286 5285 5288 5291 5295 5299 5301 5306 5312 5319 5327 5336 5345 5353 5360 5368 5376 5384 5393 5403 5414 5425 5437 5449 5463 5479 5494 5508 5519 5531 5544
5478 5464 5449 5433 5416 5397 5377 5356 5335 5313 5296 5286 5281 5280 5283 5286 5289 5293 5296 5300 5305 5312 5321 5329 5338 5346 5354 5362 5371 5379 5388 5397 5407 5418 5430 5442 5454 5467 5481 5494 5506 5519 5531
5476 5463 5447 5431 5413 5394 5373 5353 5331 5310 5294 5284 5280 5279 5281 5283 5286 5288 5292 5295 5300 5307 5315 5323 5331 5339 5347 5356 5365 5374 5383 5391 5400 5410 5421 5432 5443 5456 5468 5480 5492 5505 5516
5475 5461 5445 5429 5411 5392 5372 5352 5330 5309 5294 5285 5281 5280 5280 5282 5284 5286 5288 5292 5296 5302 5309 5317 5325 5333 5341 5350 5359 5368 5377 5386 5395 5404 5414 5424 5434 5444 5455 5466 5479 5492 5503
5474 5459 5445 5429 5411 5394 5375 5355 5334 5314 5299 5289 5283 5282 5282 5283 5284 5285 5287 5290 5293 5298 5305 5312 5319 5327 5335 5344 5353 5362 5371 5380 5389 5398 5407 5416 5425 5435 5445 5455 5467 5481 5492
5474 5461 5446 5431 5415 5398 5380 5361 5342 5322 5306 5295 5288 5285 5284 5284 5285 5285 5286 5288 5291 5296 5301 5307 5314 5321 5330 5338 5347 5356 5365 5374 5383 5392 5401 5409 5418 5426 5436 5447 5458 5470 5481
5476 5463 5449 5435 5420 5404 5387 5369 5351 5333 5316 5303 5294 5290 5287 5286 5286 5286 5287 5288 5290 5293 5298 5304 5310 5317 5325 5333 5342 5351 5360 5369 5378 5386 5395 5403 5411 5420 5429 5440 5450 5461 5471
5479 5466 5453 5439 5424 5409 5393 5376 5360 5343 5327 5313 5302 5295 5291 5289 5288 5287 5287 5288 5289 5292 5295 5301 5307 5314 5321 5329 5337 5346 5354 5363 5372 5380 5389 5398 5406 5415 5424 5433 5443 5453 5462
5482 5470 5457 5443 5429 5414 5398 5383 5367 5351 5337 5325 5314 5304 5297 5293 5290 5289 5288 5288 5289 5290 5293 5297 5303 5310 5317 5325 5333 5341 5350 5358 5366 5375 5383 5392 5401 5409 5418 5426 5436 5444 5453
5486 5474 5462 5449 5435 5421 5407 5392 5377 5363 5350 5338 5326 5315 5305 5299 5294 5291 5289 5288 5288 5289 5291 5294 5299 5305 5312 5320 5328 5336 5344 5352 5360 5369 5377 5386 5394 5403 5411 5419 5428 5436 5444
5490 5478 5466 5454 5442 5429 5416 5403 5390 5376 5363 5351 5339 5328 5317 5308 5301 5295 5292 5290 5289 5288 5290 5292 5295 5300 5307 5315 5323 5331 5339 5347 5355 5363 5370 5379 5387 5396 5404 5412 5420 5428 5436
5493 5482 5471 5459 5448 5436 5424 5412 5400 5388 5376 5364 5352 5340 5330 5321 5312 5304 5297 5293 5290 5289 5289 5290 5292 5296 5302 5309 5317 5325 5333 5341 5349 5357 5364 5372 5380 5388 5396 5405 5413 5420 5428
5497 5487 5476 5465 5454 5443 5432 5420 5409 5398 5387 5375 5364 5353 5343 5333 5324 5315 5307 5300 5294 5291 5289 5289 5290 5292 5297 5303 5310 5318 5326 5334 5342 5350 5357 5365 5373 5381 5389 5396 5404 5412 5420
5500 5490 5481 5470 5460 5449 5439 5428 5418 5408 5397 5386 5376 5366 5355 5345 5336 5327 5318 5310 5303 5296 5292 5290 5289 5290 5293 5298 5304 5311 5319 5327 5335 5343 5350 5357 5365 5372 5380 5388 5395 5403 5411
5503 5494 5485 5475 5465 5455 5446 5435 5426 5416 5406 5395 5385 5376 5366 5356 5347 5338 5329 5321 5313 5306 5299 5294 5291 5290 5291 5294 5298 5304 5311 5319 5326 5334 5342 5349 5356 5364 5371 5379 5386 5394 5401
5506 5497 5489 5480 5470 5461 5452 5442 5433 5423 5414 5404 5394 5385 5376 5367 5358 5349 5340 5332 5324 5317 5310 5303 5298 5294 5292 5292 5294 5298 5303 5310 5317 5325 5332 5340 5347 5355 5362 5369 5376 5384 5391
5508 5500 5492 5483 5475 5466 5458 5449 5439 5430 5421 5412 5403 5394 5385 5377 5368 5360 5351 5343 5335 5327 5320 5314 5308 5302 5297 5294 5293 5294 5297 5302 5308 5315 5322 5329 5337 5344 5351 5359 5366 5373 5381
5511 5503 5495 5487 5479 5471 5463 5455 5446 5437 5428 5419 5410 5402 5393 5385 5377 5369 5361 5353 5345 5337 5330 5323 5317 5311 5306 5301 5297 5295 5294 5296 5299 5304 5310 5318 5325 5332 5340 5347 5354 5362 5369
5514 5506 5498 5490 5482 5475 5468 5460 5451 5442 5434 5425 5417 5408 5400 5392 5384 5377 5369 5361 5354 5346 5339 5332 5325 5320 5314 5309 5304 5300 5296 5294 5294 5296 5299 5305 5311 5319 5326 5334 5341 5349 5356
5516 5508 5500 5493 5485 5478 5471 5464 5455 5447 5439 5430 5422 5414 5406 5398 5391 5383 5376 5368 5361 5353 5346 5339 5332 5326 5320 5315 5310 5306 5301 5298 5294 5292 5292 5294 5298 5304 5311 5319 5327 5334 5342